Theta_e
320 320 321 320 320 319 323 327 325 328 331 333 334 331 325 327 328 326 329 327 326 327 329 333 332 331 333 335 337 336 335 342 344 343 345 339 332 335 337 333 331 328 332 338 339 340 339 340 338 338 337 334 330 321 316 316 319 321 317 314 313 313 312 312 312 312 313 314 315 316 318 317 316 315 315 318 318 321 326 330 330 329 329 329 329 328 326 325 323 321 317 314 312 313 315 316 316
319 319 319 317 320 319 323 328 327 331 329 328 330 330 328 327 326 325 327 326 326 326 330 332 332 333 332 333 334 335 336 335 336 338 339 334 334 337 337 336 332 329 333 338 340 340 339 340 339 338 336 333 329 321 315 315 317 316 314 313 312 313 312 312 312 312 313 314 316 317 318 317 315 314 315 317 318 322 326 328 328 328 329 328 327 326 325 323 322 319 317 317 318 319 321 322 324
316 316 316 316 320 319 323 325 328 330 324 324 327 329 327 323 326 326 324 324 324 325 328 329 330 333 333 337 334 336 339 335 335 335 335 333 335 335 338 339 334 331 332 337 339 340 339 339 338 337 335 332 328 320 314 314 314 314 313 312 312 312 312 312 312 312 314 315 317 318 317 316 315 314 314 314 314 317 318 319 321 323 327 328 326 324 322 322 321 320 320 322 323 324 325 324 325
314 314 316 317 321 325 329 329 333 330 323 326 325 326 329 326 327 325 322 322 323 323 325 324 326 331 334 338 336 336 338 334 335 335 335 334 333 334 337 340 337 332 332 335 337 337 334 335 335 332 334 331 326 320 313 314 313 313 313 312 313 312 312 312 312 313 314 316 317 318 317 316 315 315 315 315 314 314 314 314 315 316 320 323 322 319 319 321 323 322 323 326 327 329 327 325 326
313 315 318 319 323 329 331 329 330 326 321 327 325 325 330 328 326 322 321 322 322 324 323 323 328 332 332 335 335 338 337 334 336 335 335 334 333 334 336 340 340 334 333 334 334 333 326 330 330 326 332 328 326 322 314 314 313 313 313 312 313 312 312 312 312 313 314 317 318 318 317 316 316 317 317 317 317 316 315 314 314 314 315 317 316 315 317 322 325 325 327 329 330 330 329 327 329
314 316 320 323 324 324 328 329 328 325 323 326 325 327 328 324 323 321 321 322 322 324 324 324 328 333 333 334 334 336 335 334 336 335 335 335 334 333 335 339 341 338 336 336 334 332 325 327 327 325 331 327 326 322 314 314 313 313 313 313 313 312 312 312 312 313 314 316 317 317 317 317 317 318 319 319 321 322 321 320 318 315 314 315 314 314 315 322 327 327 328 330 330 329 329 329 330
314 317 320 327 326 323 331 336 332 331 326 322 324 328 326 322 321 321 321 321 322 323 325 325 326 331 333 334 335 334 333 335 336 335 336 336 335 334 335 336 340 340 340 339 335 334 329 328 330 330 331 328 327 320 313 314 313 313 313 313 313 312 312 312 313 313 315 316 317 317 317 318 318 319 320 322 325 328 329 329 328 322 316 314 313 313 315 321 326 327 328 327 327 327 327 328 328
315 317 318 327 328 324 331 333 330 331 327 321 322 324 323 322 320 322 322 320 322 321 322 323 322 329 333 332 335 335 331 334 335 336 338 337 336 335 335 335 337 340 342 341 337 336 333 333 336 336 332 328 328 320 314 314 313 313 313 313 313 312 312 312 312 313 315 315 316 316 317 318 320 322 322 324 327 330 331 332 333 330 324 317 314 312 316 322 325 326 326 326 326 326 325 325 324
314 317 317 323 325 323 327 327 325 325 325 323 321 320 320 321 319 320 321 319 319 319 320 319 320 328 331 331 333 333 331 333 333 336 339 338 339 337 337 338 338 340 343 342 339 338 336 337 338 337 332 326 324 318 314 314 313 313 313 313 312 313 312 312 312 313 314 314 315 315 317 320 324 326 325 326 328 330 331 332 333 333 331 326 320 313 315 322 325 326 327 326 326 326 324 323 323
314 317 316 321 323 322 324 324 324 323 323 322 319 319 319 318 318 318 319 319 317 317 317 315 320 325 328 331 333 331 332 333 332 336 340 339 340 338 337 338 339 341 343 344 342 341 339 339 339 336 331 326 320 315 314 314 313 313 313 313 313 313 313 313 312 312 313 313 313 314 315 318 323 327 328 328 329 331 331 331 331 332 332 332 329 320 314 319 325 326 327 328 326 325 324 322 321
315 316 316 322 324 321 323 324 326 325 322 319 317 318 318 318 317 317 316 317 315 315 314 315 321 324 327 331 331 332 331 330 334 338 340 339 339 340 339 338 339 341 342 343 343 344 342 340 340 335 327 323 318 313 314 313 313 313 313 313 313 314 314 314 313 312 312 313 313 313 314 316 321 326 329 330 330 331 331 330 330 331 332 333 333 329 321 317 322 326 326 328 327 324 323 323 322
314 317 322 327 325 322 323 323 326 327 324 321 319 317 317 316 316 316 315 314 313 313 314 317 321 324 330 333 330 332 331 334 340 341 342 341 340 340 339 340 340 340 340 337 339 344 343 341 341 336 327 321 316 313 314 313 313 313 314 315 315 316 317 316 316 314 312 312 312 312 313 315 320 325 328 330 330 331 331 331 331 332 332 332 332 333 330 321 317 322 326 328 328 326 324 324 323
314 318 324 324 321 322 321 320 323 325 325 323 319 316 315 314 314 315 313 313 311 312 317 322 325 325 330 335 331 332 336 341 345 343 344 343 342 341 339 341 341 341 339 334 336 342 341 341 343 338 329 321 316 314 313 314 313 313 315 317 318 318 319 318 318 316 314 313 312 312 312 313 317 323 327 329 331 332 333 333 332 333 333 331 331 331 332 327 319 318 324 328 329 327 326 325 324
314 316 322 319 317 320 318 317 319 318 320 321 317 314 314 312 313 313 312 313 311 312 320 327 330 327 329 335 333 335 339 342 344 344 345 345 345 342 341 343 341 338 336 333 334 339 339 340 343 340 333 324 317 315 313 313 313 313 315 316 318 320 319 319 318 317 316 314 313 313 312 312 313 318 324 329 331 332 333 333 332 333 333 331 330 331 332 331 325 319 322 328 329 329 328 328 326
313 314 320 320 315 316 316 316 317 315 317 319 314 312 312 312 313 312 312 313 312 314 321 328 331 329 331 335 335 336 339 341 342 344 346 346 345 344 345 342 336 336 336 334 332 333 335 337 341 341 337 330 320 316 314 313 313 313 314 314 316 317 318 318 317 316 316 315 314 313 313 312 312 312 317 324 329 331 332 332 333 332 333 331 329 330 331 331 330 325 322 326 329 329 329 329 329
313 313 318 318 314 314 315 315 315 314 316 316 313 312 311 312 312 312 312 312 312 314 321 327 329 330 332 333 333 335 338 340 341 345 346 345 346 346 344 336 333 337 339 338 332 331 333 332 339 342 339 335 327 322 318 315 314 313 313 313 314 314 316 316 316 315 315 315 314 314 313 313 312 311 312 316 322 326 328 329 331 331 332 333 330 329 330 329 330 330 326 325 328 329 329 329 329
312 313 316 316 314 314 315 315 315 315 317 315 312 312 311 312 312 312 313 312 312 312 318 327 329 330 334 333 333 334 337 339 340 345 346 344 347 347 341 334 333 337 340 341 336 332 333 329 334 340 340 338 333 328 326 322 320 318 317 315 315 315 314 314 315 314 314 314 314 314 314 314 313 312 311 311 314 317 320 323 326 328 329 330 328 327 328 328 328 331 330 328 327 328 328 328 329
311 314 315 313 313 314 315 316 314 313 316 313 312 312 311 311 312 312 312 312 313 312 314 324 331 334 336 337 337 337 336 338 339 342 345 344 347 347 342 336 336 340 342 343 339 334 331 328 332 339 341 340 336 333 331 330 329 327 326 325 324 322 320 319 317 316 315 314 313 314 314 314 313 312 312 311 311 311 313 314 316 319 320 320 322 323 324 324 326 328 330 330 329 329 328 328 329
311 313 312 313 314 311 311 313 311 311 313 311 311 311 310 311 311 311 312 312 311 313 311 318 332 337 337 339 339 340 338 338 339 340 342 343 345 346 343 339 339 342 342 342 342 337 329 327 332 338 342 341 338 337 335 334 335 335 334 334 333 332 331 329 327 324 322 319 316 314 313 313 314 313 313 312 312 311 311 311 311 312 313 313 315 318 319 320 322 325 327 329 330 330 329 329 329
310 310 312 314 312 310 309 310 310 311 312 311 310 309 310 310 310 311 311 311 310 313 311 312 328 337 338 340 340 340 339 339 340 339 340 341 344 345 342 339 338 338 338 338 342 341 334 330 336 340 341 341 340 338 338 338 337 337 337 337 337 337 336 335 335 333 332 329 325 322 317 314 313 313 313 313 312 312 311 311 311 311 311 311 312 314 315 317 318 320 323 326 328 329 329 329 329
309 309 313 312 308 310 310 310 311 311 311 311 310 308 309 310 310 311 310 311 312 313 311 312 326 332 334 339 340 340 339 339 340 341 341 341 342 342 340 339 338 335 335 335 337 340 338 335 338 339 339 340 340 340 339 339 338 338 338 338 338 337 337 337 336 336 335 335 334 331 327 322 317 313 312 313 313 312 312 311 311 311 311 311 311 312 313 314 315 317 318 320 324 327 328 328 328
309 309 311 309 307 310 311 310 311 310 310 309 309 309 310 310 310 311 310 311 312 313 311 313 326 328 325 333 339 340 339 339 341 340 340 339 336 334 336 339 338 335 334 334 332 335 338 337 334 336 340 339 338 340 340 339 338 338 338 338 338 337 337 336 336 336 335 334 334 334 333 331 326 320 315 313 313 312 312 312 311 311 311 311 311 311 312 312 313 313 314 316 319 322 326 327 327
310 309 308 308 308 309 310 311 310 311 310 308 309 310 310 309 309 310 310 312 311 313 311 312 325 326 323 329 337 340 339 339 338 337 335 336 337 337 338 337 335 331 329 331 332 331 335 336 332 332 339 340 337 338 339 339 337 337 337 337 336 336 336 335 335 334 334 333 332 331 332 333 332 329 324 320 317 314 312 312 312 312 311 311 311 311 311 311 311 312 312 313 315 318 322 325 326
309 310 308 308 308 308 310 310 310 311 309 309 309 309 309 308 310 310 309 312 311 312 311 313 324 326 326 330 334 337 338 335 331 331 331 331 335 338 339 336 334 334 331 331 332 331 330 332 333 331 334 338 337 337 338 337 336 335 334 334 333 334 334 333 333 332 331 330 329 329 329 329 331 332 330 328 326 322 316 312 311 312 312 311 311 311 311 311 311 311 312 312 312 315 318 322 324
309 309 308 308 308 308 310 309 310 310 309 309 308 308 309 308 309 308 310 311 311 313 310 316 326 326 329 332 334 336 336 333 326 325 326 326 330 333 336 336 336 337 335 333 334 332 330 331 333 332 333 337 337 336 334 333 333 333 332 331 331 331 331 330 330 330 329 328 328 327 328 327 327 328 330 331 331 330 325 319 314 312 312 312 312 311 312 311 311 311 311 311 311 312 315 319 323
308 308 308 307 308 308 309 309 309 310 309 309 308 308 309 308 309 309 310 311 311 313 311 319 328 325 328 334 335 335 336 335 328 323 324 325 328 332 333 335 337 336 333 333 335 334 333 331 331 333 334 335 336 334 332 331 330 331 330 330 330 330 329 328 327 327 327 328 328 328 327 327 326 324 325 328 331 332 330 327 322 317 313 312 312 312 312 311 311 311 311 311 312 311 312 315 320
308 308 308 307 307 308 308 309 309 308 308 308 308 310 308 307 309 309 310 311 312 313 314 323 328 323 325 332 334 334 334 335 331 328 327 327 329 330 330 330 333 333 328 328 331 333 335 334 333 335 334 334 335 333 332 332 331 331 332 332 332 331 329 327 327 327 327 328 329 329 328 327 327 325 322 323 327 330 332 331 330 326 320 315 312 311 312 312 312 311 312 311 311 312 311 312 315
308 308 308 308 307 308 308 308 308 307 308 308 308 310 308 308 309 310 310 311 312 311 320 328 325 322 325 326 329 330 329 331 332 331 330 330 329 328 328 326 328 330 327 330 331 331 332 334 335 335 336 336 335 334 332 332 332 332 332 333 332 330 329 328 327 326 327 328 328 328 328 327 327 327 325 323 324 326 328 330 331 331 329 324 318 314 312 312 312 312 311 311 311 311 311 311 311
309 308 311 312 310 311 309 307 308 307 309 308 308 310 311 310 308 309 309 311 314 314 322 328 327 327 328 326 327 328 328 330 332 331 329 328 326 328 329 327 330 332 333 335 334 331 332 334 335 336 337 338 337 336 335 335 334 333 332 332 332 332 332 331 330 329 328 328 328 328 328 328 327 327 327 326 326 327 327 328 330 330 330 330 328 323 316 312 312 312 311 312 312 311 311 311 311
309 307 310 313 313 314 309 308 311 308 309 308 308 311 313 311 307 308 310 312 317 319 321 325 327 329 328 328 329 329 330 332 332 330 328 327 328 330 330 329 333 336 337 337 337 336 337 337 337 337 337 338 337 337 337 337 336 335 334 335 335 334 333 332 331 331 330 330 329 329 329 328 328 328 327 326 326 328 330 329 330 331 330 330 331 330 325 318 313 312 312 312 312 312 312 312 311
311 308 310 312 311 315 312 308 310 309 308 308 309 312 312 310 307 308 311 313 317 320 321 325 327 328 328 328 329 329 331 333 333 331 329 329 330 330 328 328 331 333 335 335 336 338 338 338 339 338 338 337 337 337 337 337 337 337 337 336 336 335 333 332 332 332 332 332 332 331 330 329 329 328 328 327 326 326 327 327 326 327 329 330 330 330 328 323 318 314 313 312 312 312 312 312 312
313 311 315 314 310 315 315 309 308 310 309 308 309 312 313 310 308 310 312 313 317 320 322 326 329 329 330 330 330 331 332 333 333 332 330 330 331 330 326 326 327 327 326 324 328 334 335 336 337 338 339 338 338 337 337 337 337 338 337 337 336 336 336 335 335 335 334 334 333 332 331 330 330 329 328 328 327 326 325 324 323 323 324 325 325 325 324 322 320 318 315 313 312 312 312 312 312
317 314 315 315 313 314 315 311 307 308 308 308 309 311 312 309 308 310 312 313 317 320 322 324 327 329 330 329 329 328 328 327 327 326 325 324 324 325 325 324 323 323 321 319 321 324 326 326 328 331 334 336 337 337 337 337 337 337 337 337 336 337 337 337 337 336 335 335 334 332 331 331 331 330 330 329 329 328 327 326 325 324 323 323 322 321 320 319 318 317 316 314 313 314 313 313 313
322 318 316 315 315 312 313 314 309 307 308 309 309 310 310 309 309 310 311 314 317 319 320 322 325 327 329 328 326 323 322 322 323 323 322 322 321 322 322 322 321 320 319 318 318 317 317 318 318 320 323 326 329 331 333 334 334 335 335 335 335 336 336 337 337 337 336 336 335 334 332 331 331 330 330 330 330 329 329 328 328 327 326 325 325 324 322 320 317 317 316 315 317 319 318 317 316
318 319 318 316 314 312 314 315 311 309 310 310 309 310 310 310 311 311 311 315 317 318 319 320 323 324 325 324 322 322 321 321 321 321 321 321 321 321 320 320 319 319 317 317 316 316 316 317 317 316 317 318 320 322 324 326 328 330 330 329 330 334 335 335 336 336 336 336 336 335 334 333 333 330 329 330 330 330 330 330 330 330 329 328 328 328 326 323 319 318 316 317 322 326 326 325 324
314 316 317 315 314 313 314 315 312 308 310 311 310 311 311 310 314 313 312 315 316 317 318 320 321 322 322 322 321 321 320 320 320 320 320 320 319 319 319 318 317 317 316 316 316 316 316 316 316 316 316 316 316 317 318 320 322 324 325 324 324 329 332 333 334 335 335 335 335 335 335 335 335 334 332 331 331 331 332 332 332 331 332 332 331 329 327 325 323 320 317 319 327 332 332 331 330
311 313 314 314 313 313 314 315 312 308 310 313 311 312 311 310 315 313 312 315 315 316 318 319 320 321 321 321 321 321 320 320 320 320 319 319 319 318 317 317 316 316 315 315 315 315 315 315 315 315 316 316 315 314 314 315 317 319 321 323 323 325 328 330 332 334 335 335 336 336 336 335 336 335 334 333 332 333 333 332 333 333 332 333 332 332 330 328 327 324 321 324 331 334 334 334 332
310 311 312 313 313 314 314 314 314 311 311 316 315 314 312 311 315 311 311 315 316 316 318 319 320 320 321 321 320 321 320 320 320 319 319 318 318 317 316 316 315 315 315 315 315 315 316 315 315 315 316 316 315 315 314 313 314 315 317 319 321 322 325 328 330 332 333 335 335 336 336 335 335 335 334 333 333 334 334 332 332 332 333 333 333 333 333 332 331 329 326 328 332 334 334 334 334
311 312 313 315 315 314 315 315 317 315 314 318 317 313 313 313 315 312 311 315 315 316 317 319 320 320 320 320 320 320 319 319 319 318 318 317 317 316 316 316 315 315 314 315 315 316 316 316 316 316 316 316 316 317 316 316 315 314 315 316 317 318 321 324 327 328 330 333 335 335 336 335 335 335 334 334 334 334 334 333 332 332 333 333 333 333 333 333 333 333 331 330 331 333 334 334 335
313 314 314 318 316 314 318 318 318 316 313 316 317 317 316 314 315 314 312 313 314 315 317 318 319 319 320 320 320 320 319 319 318 318 318 317 316 316 316 315 315 315 315 316 316 316 315 314 314 314 314 315 316 317 317 318 317 316 316 316 317 317 318 319 321 324 326 329 332 334 334 335 335 335 335 335 334 333 332 332 331 331 332 332 332 333 333 332 332 333 334 333 332 333 333 334 335
318 317 316 320 319 316 318 317 318 319 316 314 318 324 323 316 316 316 314 314 314 315 316 317 317 318 319 320 320 319 319 318 318 318 317 317 316 316 316 316 316 317 316 315 314 313 311 311 310 310 310 311 313 315 316 317 317 317 316 316 316 317 317 317 317 319 321 325 328 330 332 333 334 334 335 335 335 333 332 332 331 330 331 331 332 333 333 332 332 332 333 333 334 333 333 334 335
320 318 317 320 320 317 316 317 322 325 322 316 314 320 325 320 316 316 316 316 316 314 314 315 316 317 319 320 319 319 318 318 317 317 317 317 317 317 317 317 317 315 313 311 310 309 308 307 307 308 308 308 309 311 312 314 316 317 317 316 316 315 315 316 316 316 317 318 322 325 327 329 331 333 334 334 335 334 333 333 333 331 332 332 331 331 332 333 333 333 333 333 333 334 334 334 335
320 319 318 318 318 317 316 317 321 323 321 315 313 318 325 322 316 315 316 316 317 315 313 313 314 317 319 319 319 318 318 318 317 318 318 318 318 317 317 316 314 312 310 309 308 308 307 306 306 306 307 306 307 307 308 310 311 313 315 316 317 316 316 317 318 318 318 317 318 320 322 324 327 329 332 333 334 334 334 335 335 334 333 332 330 329 331 333 333 333 333 333 333 334 334 334 334
322 318 317 318 317 316 318 317 318 321 319 319 321 320 319 321 318 316 316 316 316 316 316 315 314 316 318 318 318 318 318 318 318 318 318 317 317 316 315 313 311 310 309 309 308 307 307 306 306 306 306 306 306 306 306 307 308 309 310 312 314 316 316 317 318 319 320 319 318 318 319 320 323 325 329 331 333 334 334 335 335 335 335 334 332 330 330 332 333 333 333 334 334 334 334 335 334
321 317 316 317 317 317 318 319 321 321 318 323 328 319 315 325 324 316 315 316 317 317 317 315 313 315 317 317 317 317 317 318 318 318 316 315 314 313 312 311 311 311 310 310 309 308 308 307 307 307 307 306 306 305 305 305 306 306 307 308 310 312 314 315 317 318 319 320 320 319 319 320 321 322 324 327 330 332 334 334 335 335 335 335 334 333 332 332 333 333 333 333 334 334 334 335 335
315 314 317 319 320 321 321 323 325 321 318 325 329 319 315 327 325 315 315 317 317 317 316 314 312 314 316 316 316 316 316 316 315 315 314 313 312 312 311 311 311 311 311 310 309 309 309 308 308 308 307 307 307 306 306 305 305 305 306 307 308 309 310 311 313 315 317 319 320 320 319 319 320 321 321 322 325 328 331 333 334 334 335 335 335 335 334 332 333 334 334 334 333 333 334 335 336
310 315 319 319 323 326 326 327 325 320 323 327 325 318 316 323 324 317 316 319 317 315 316 315 313 314 315 315 315 315 314 314 313 313 312 312 312 311 311 311 311 311 311 310 310 309 309 309 309 308 308 308 308 307 307 306 305 304 304 305 306 308 309 309 310 311 313 316 318 319 320 319 319 320 320 320 321 324 327 330 332 333 334 335 334 335 335 334 333 333 334 334 333 333 334 336 336
314 321 321 318 323 325 325 327 324 321 327 326 320 318 316 319 326 321 315 318 319 316 315 316 314 313 314 314 314 314 313 313 312 312 312 312 312 311 311 311 311 311 310 311 310 310 309 309 309 309 309 309 308 308 308 307 306 305 304 303 304 306 308 309 309 309 310 311 313 316 318 319 319 319 319 320 320 321 324 326 329 332 333 334 334 335 335 335 334 334 334 334 333 333 334 335 336
317 323 325 322 322 322 323 325 322 322 325 320 317 319 316 319 326 323 317 317 318 315 313 314 313 313 314 314 313 313 313 313 312 312 312 312 311 311 311 311 311 311 311 311 310 310 309 309 309 309 309 309 309 308 308 308 307 306 304 303 304 305 307 309 309 310 309 309 310 312 315 317 319 319 319 319 320 321 323 325 327 329 330 331 333 333 334 334 334 334 334 334 334 333 334 334 334
317 321 326 324 322 322 325 323 318 320 321 316 315 318 319 321 321 319 319 317 315 313 312 313 313 313 314 314 314 313 312 313 312 312 312 311 312 311 311 311 311 311 311 310 310 310 310 310 309 309 309 309 309 308 308 308 308 306 304 303 303 304 307 309 309 310 310 309 309 309 311 314 316 318 319 319 319 320 322 324 326 327 328 329 330 332 332 333 334 334 334 335 334 333 333 332 332
317 319 320 321 325 325 324 323 321 322 322 317 315 317 323 325 318 315 316 314 313 312 312 313 313 312 314 314 313 313 312 312 312 312 312 311 312 312 311 311 311 311 311 311 311 310 310 310 310 309 309 309 308 308 308 308 307 306 304 303 303 304 307 309 309 310 310 310 309 309 309 310 313 316 318 319 319 320 321 322 325 327 328 328 329 330 331 332 333 334 334 335 335 334 334 333 332
315 313 316 318 324 324 319 317 321 321 320 320 317 317 324 323 316 316 315 313 312 311 311 312 312 312 313 313 313 313 312 312 312 312 312 312 312 312 312 311 311 311 311 311 310 310 310 310 309 309 309 308 308 308 308 308 307 305 304 303 303 304 306 309 309 310 310 309 309 309 308 308 309 312 315 318 319 320 321 322 323 325 326 328 328 329 330 332 333 334 334 334 335 335 335 335 335
315 313 320 319 316 323 321 314 315 316 318 321 318 318 324 320 316 319 319 316 314 311 310 311 311 312 311 312 313 312 312 312 312 312 312 312 312 312 311 311 310 310 310 310 310 309 309 309 309 309 308 308 308 308 307 307 306 305 303 303 303 304 306 308 309 310 309 309 309 309 309 308 308 309 312 316 318 320 321 321 322 323 324 326 327 328 329 330 332 333 334 334 334 335 335 335 335
318 318 321 317 312 321 323 317 319 318 318 322 318 318 324 321 321 322 318 317 317 314 311 310 310 310 310 311 312 312 312 312 312 313 312 312 312 311 311 311 310 310 310 310 309 309 309 309 308 308 308 308 308 307 307 306 305 304 303 303 304 305 305 307 309 310 309 309 309 309 309 308 308 308 309 312 316 319 320 321 322 322 323 324 325 327 328 329 330 331 332 333 333 334 334 335 334
316 318 317 316 317 323 320 317 322 320 318 322 320 317 319 321 325 325 319 318 320 317 314 312 310 310 309 311 312 312 312 312 312 312 312 312 312 311 311 310 310 310 310 309 309 309 309 308 308 308 308 308 307 307 306 305 304 303 303 303 304 305 305 307 309 310 309 309 308 308 308 308 308 308 308 309 313 317 319 320 321 322 322 322 322 323 326 327 328 329 331 332 332 333 333 333 333
313 315 315 317 323 324 319 317 321 320 318 321 321 318 320 323 326 327 322 320 319 319 317 313 310 309 310 311 312 312 312 312 312 312 312 312 312 311 311 310 310 310 309 309 309 309 309 308 308 308 308 307 307 306 305 304 303 302 303 304 305 306 306 307 309 310 309 309 308 308 308 308 308 308 308 308 310 314 318 320 321 321 322 322 322 322 323 325 327 327 329 330 331 332 332 332 333
315 318 318 319 318 317 319 317 318 321 320 320 321 320 325 327 322 323 324 320 317 318 318 313 309 309 311 311 312 312 312 312 312 312 312 312 311 311 310 310 310 309 309 309 309 309 309 308 308 308 307 307 306 306 305 303 302 302 303 304 305 306 307 308 309 309 309 309 309 309 309 309 309 308 308 308 308 311 316 318 320 321 322 323 323 322 323 325 326 326 327 328 329 330 332 332 333
319 321 320 322 321 319 321 319 317 319 319 320 320 319 325 326 320 321 324 319 315 314 314 312 310 310 310 311 312 312 312 313 313 312 312 312 311 311 310 310 310 310 309 309 309 308 308 308 308 307 307 306 306 305 304 303 302 302 304 305 306 307 308 309 309 309 309 309 309 309 309 309 310 309 308 307 307 309 313 317 319 320 322 323 323 324 324 325 325 325 326 327 327 328 330 332 332
Wind_Speed
4 4 5 6 7 5 7 6 2 2 2 1 1 1 3 3 0 1 5 7 3 6 3 4 5 5 4 4 7 7 4 5 5 3 2 6 1 14 16 14 19 20 23 26 26 26 25 24 23 22 22 20 18 16 18 19 20 20 19 17 16 15 15 14 14 15 15 15 15 15 14 13 12 11 12 13 15 17 17 16 15 15 14 13 13 12 11 12 12 13 13 14 16 16 16 17 18
6 6 6 6 6 3 3 4 1 2 3 1 2 2 3 3 2 1 3 4 4 8 5 1 3 6 7 6 7 6 5 6 7 6 4 4 9 18 16 16 20 20 23 26 26 27 26 24 23 23 23 21 19 17 19 21 21 20 19 18 16 15 14 14 14 15 16 16 16 15 15 14 13 13 13 15 16 17 17 16 17 16 15 13 12 12 12 13 13 14 16 16 16 14 13 14 14
5 6 6 5 2 0 1 3 1 1 3 1 4 3 2 3 3 5 5 6 7 11 10 8 6 7 6 4 3 2 4 6 8 9 5 4 13 17 16 17 19 19 22 26 27 27 25 23 22 21 22 21 18 18 21 23 22 21 19 18 16 15 14 14 14 15 16 16 16 16 16 15 15 14 15 16 17 16 16 15 16 16 15 13 12 13 13 14 15 16 16 15 13 12 10 10 9
4 4 3 3 3 1 2 3 2 4 2 3 3 4 3 2 5 6 7 7 8 12 15 13 7 7 7 4 4 3 6 7 8 10 4 5 13 15 17 18 20 20 21 24 25 27 24 23 22 20 22 20 18 18 21 25 24 22 20 19 17 15 14 14 14 15 16 16 17 17 16 16 16 16 16 16 17 16 15 14 13 14 14 13 12 12 13 15 16 16 16 14 12 11 9 8 7
2 2 2 4 3 1 3 2 2 4 3 4 1 5 4 5 6 6 11 13 10 12 16 12 5 6 7 6 5 3 6 7 8 12 5 4 12 15 16 18 22 22 21 22 24 26 24 25 24 22 24 21 20 21 23 26 25 23 21 19 18 16 15 14 15 16 17 17 17 17 17 17 16 16 16 16 16 15 14 13 13 12 12 12 12 13 14 16 16 16 15 13 12 11 9 8 8
1 2 4 4 3 2 3 2 2 2 4 4 2 5 5 5 7 9 16 19 11 8 11 9 6 4 4 6 8 8 7 7 8 13 10 5 12 16 15 17 21 23 22 21 22 25 24 25 26 24 26 23 23 24 25 27 26 24 22 20 19 17 15 14 15 16 17 18 18 18 17 17 16 15 16 16 15 14 14 13 13 12 12 12 11 12 15 16 16 15 15 14 13 11 10 9 8
3 4 4 4 3 2 3 2 3 2 3 4 4 4 6 8 11 11 13 15 9 8 8 7 7 5 4 5 8 14 13 11 9 11 12 8 13 16 16 16 18 21 22 22 22 24 24 25 27 27 27 25 25 26 26 28 27 25 23 21 20 18 16 15 15 16 17 18 18 18 17 16 15 15 15 15 15 14 14 13 12 12 12 12 12 13 15 16 15 15 14 14 13 12 10 10 9
4 4 3 4 2 2 3 2 3 3 3 4 4 5 7 13 15 9 8 9 7 9 10 13 13 6 8 9 7 12 16 16 12 10 12 10 12 15 15 16 16 18 21 22 22 23 26 27 29 29 27 27 27 27 28 29 28 26 24 22 20 19 17 15 15 15 16 17 18 17 17 16 15 15 15 15 15 15 15 14 13 12 12 11 11 12 15 15 14 13 13 13 13 11 10 10 8
5 3 2 3 1 1 2 0 2 2 3 4 4 7 11 16 14 7 7 9 11 11 13 18 12 5 9 12 11 14 17 17 14 12 12 11 12 14 17 19 18 17 20 23 24 25 27 28 29 29 27 27 27 28 29 30 29 27 25 23 21 19 18 16 15 15 16 16 17 17 16 15 15 15 16 16 15 15 15 14 13 13 12 11 11 11 13 14 13 12 13 13 12 11 10 9 7
5 2 2 2 2 1 2 1 2 2 4 4 4 10 14 16 12 9 8 9 15 13 15 20 9 11 11 9 12 15 18 18 15 12 11 12 12 15 20 22 20 19 21 23 24 25 27 28 28 28 27 27 27 28 30 30 29 27 25 23 21 19 18 16 15 14 14 15 16 15 15 14 14 15 15 15 15 15 14 14 13 12 12 12 11 10 11 13 14 12 13 13 12 10 9 7 5
3 2 4 3 2 1 2 2 3 3 5 4 5 11 11 12 10 11 10 9 16 14 17 16 4 13 10 7 13 15 18 19 15 12 11 12 13 13 16 18 19 17 17 17 18 23 26 27 28 28 27 26 26 28 29 29 28 27 25 23 21 19 17 16 15 14 13 14 14 14 13 13 13 15 15 15 15 15 14 13 12 12 11 11 10 10 10 12 13 13 12 12 11 9 7 5 3
2 1 4 3 2 2 3 2 3 4 5 3 4 9 7 10 7 7 9 8 14 15 16 10 4 8 5 5 13 18 19 18 14 12 13 13 13 10 10 13 16 15 14 12 14 21 25 25 27 27 27 25 25 27 28 28 27 26 25 23 21 19 17 16 14 13 12 12 12 12 12 12 12 14 15 15 15 14 14 13 12 11 11 10 9 10 10 10 12 13 12 11 10 9 7 4 2
5 2 5 2 3 2 3 2 3 3 5 3 4 6 7 8 6 6 7 9 12 11 11 9 10 11 6 4 11 20 17 14 13 13 15 16 16 12 11 13 14 14 14 13 13 20 24 24 26 26 26 26 25 26 27 27 27 26 25 24 22 20 18 17 15 14 13 12 12 12 12 12 12 13 14 14 14 14 13 12 11 11 10 10 9 10 10 10 11 12 13 12 10 9 7 6 4
7 5 5 2 1 2 3 1 2 2 3 5 3 3 7 6 5 9 6 6 10 9 9 9 11 9 7 4 8 15 12 12 15 15 16 17 17 15 13 13 13 14 16 15 10 13 20 22 24 24 25 26 25 26 27 27 27 26 25 24 23 22 20 18 16 15 13 13 12 12 11 11 12 12 13 13 14 14 13 11 11 11 10 9 10 11 11 11 11 12 13 13 11 10 9 8 6
9 6 4 2 1 1 2 3 3 3 4 6 2 2 7 5 6 10 5 3 10 13 9 5 4 4 3 4 5 7 9 12 15 15 14 13 14 13 14 13 13 16 19 18 7 13 20 23 24 24 24 26 26 26 26 27 27 26 25 24 23 22 20 19 17 16 15 13 13 12 12 11 11 11 12 12 13 13 13 12 11 11 10 9 10 11 11 11 12 12 14 14 13 12 11 10 9
9 6 4 2 0 1 3 3 3 3 5 5 4 3 6 5 7 10 7 6 11 15 9 4 2 4 6 6 5 6 12 13 13 13 11 10 11 12 12 11 11 15 19 20 10 16 23 25 25 25 25 25 26 26 25 26 26 25 24 23 22 21 20 19 17 16 15 14 13 13 12 11 11 11 11 11 12 12 13 13 12 11 11 10 10 11 11 11 12 12 13 14 14 14 13 12 12
8 4 4 1 2 3 4 4 3 4 5 4 4 3 2 4 8 9 10 9 11 14 11 8 6 5 6 5 6 9 15 14 12 13 10 9 12 15 12 9 10 13 16 19 14 15 22 26 27 26 25 26 26 26 25 25 24 23 23 22 21 20 19 18 17 16 15 14 14 13 12 11 11 11 11 11 11 11 12 12 12 11 11 11 11 11 11 10 11 12 13 14 14 15 14 14 14
6 3 3 2 4 4 5 6 5 4 3 4 3 4 1 3 8 9 10 9 11 14 12 10 7 4 1 4 7 12 16 15 13 13 12 11 15 16 12 12 11 12 14 16 17 18 21 25 27 27 26 27 28 28 27 26 25 24 23 22 21 20 19 19 18 17 16 15 14 13 13 12 11 11 11 11 11 11 11 12 11 11 11 10 9 10 10 10 11 11 12 13 13 14 14 14 15
5 3 2 3 5 4 4 5 5 4 5 6 8 8 4 4 6 7 7 7 11 12 10 10 7 4 1 6 10 13 14 14 14 14 14 13 17 17 15 16 15 15 16 15 19 21 21 23 27 29 28 28 29 29 29 27 27 25 24 23 22 21 20 20 19 18 17 15 14 13 13 12 12 11 11 11 11 12 12 11 11 11 11 9 9 9 9 10 10 11 11 12 13 13 13 14 15
3 3 2 5 6 4 7 6 7 10 9 9 8 5 4 5 7 6 5 6 8 7 6 9 5 3 3 7 10 12 12 13 13 13 14 14 16 16 14 14 14 14 13 14 20 23 24 26 29 29 27 27 28 29 29 28 27 26 25 24 23 23 22 21 20 19 18 16 15 14 13 13 12 12 12 12 12 12 12 12 11 11 10 10 10 9 9 10 10 10 11 11 12 13 12 12 13
3 4 4 6 5 3 9 7 9 13 11 11 8 1 2 6 5 3 3 3 6 6 5 7 2 3 3 7 10 12 13 13 13 12 13 12 11 11 10 11 11 11 9 10 16 20 23 25 27 27 26 26 27 28 28 28 27 26 25 25 24 23 22 21 20 19 18 18 17 16 15 14 14 14 14 14 13 13 13 12 11 11 10 10 10 9 9 10 9 9 9 10 10 11 12 12 12
3 4 8 6 4 3 10 7 7 9 7 9 7 2 4 4 2 2 2 2 4 6 6 5 1 3 3 7 12 12 13 13 11 10 8 8 7 7 8 8 10 10 9 10 11 15 19 22 24 25 27 27 26 25 26 27 27 26 25 25 24 23 22 21 21 20 19 19 19 19 19 18 17 16 15 15 15 14 13 13 12 11 11 11 10 10 10 10 9 9 8 8 9 10 11 11 11
3 4 6 9 7 7 13 11 9 9 6 6 5 4 4 1 2 4 4 6 8 9 7 5 2 3 3 6 13 13 11 10 8 7 5 7 7 8 9 9 9 9 9 11 11 12 16 19 23 25 27 27 25 24 24 24 25 26 25 24 24 23 22 22 21 21 20 20 20 20 20 20 20 19 18 17 16 15 14 13 13 13 12 12 12 11 11 11 10 9 8 8 8 9 10 11 11
5 3 4 7 8 10 15 14 12 12 10 10 7 5 4 1 1 4 6 9 12 11 8 6 6 5 3 6 12 13 11 9 8 8 8 8 8 9 11 10 12 12 9 9 10 11 14 17 22 27 29 29 27 25 22 21 22 23 24 24 24 23 22 22 21 20 20 20 20 20 20 20 21 22 22 20 19 17 16 15 14 14 14 14 14 13 13 12 11 11 10 9 9 9 10 10 11
4 4 5 5 5 8 13 13 12 13 13 14 9 6 4 2 3 4 5 6 8 9 8 8 10 6 2 4 10 13 12 12 11 12 10 7 3 2 4 6 7 7 6 9 11 11 13 16 21 24 28 29 27 25 22 21 21 21 22 23 22 22 22 21 21 20 20 20 19 19 20 21 22 23 24 24 22 21 19 17 16 15 15 15 15 15 15 14 13 13 12 11 11 10 10 10 11
4 5 6 5 7 10 11 12 13 12 13 12 8 6 2 3 3 2 2 3 5 7 9 9 13 8 3 5 10 14 14 15 15 12 9 6 4 8 8 5 6 6 4 7 15 16 14 13 19 21 24 25 25 26 24 22 20 20 21 20 19 19 20 20 20 20 19 19 18 19 20 21 21 22 23 24 25 24 22 21 19 17 17 17 17 17 17 16 15 15 14 14 12 12 12 12 12
5 7 7 6 9 11 9 10 10 8 11 10 8 6 2 4 2 2 3 4 4 9 9 9 11 8 8 8 10 13 13 14 13 11 8 7 7 9 9 7 5 5 6 6 11 15 19 19 21 24 25 26 26 25 23 20 19 21 20 18 18 18 19 19 20 19 18 19 19 19 20 20 21 21 21 22 24 25 24 24 22 20 19 19 18 18 18 18 18 17 17 16 15 15 14 14 13
5 4 4 6 8 7 4 5 4 3 6 9 9 4 2 3 1 4 5 4 8 12 11 11 11 11 13 11 11 11 10 8 7 7 7 8 8 6 3 5 4 3 0 2 5 6 12 18 23 25 25 25 24 20 19 19 17 19 19 18 18 18 18 18 17 17 18 18 18 19 20 20 21 20 20 20 22 23 25 25 25 24 22 20 19 19 19 20 20 19 19 19 18 17 17 16 16
3 2 3 7 9 6 3 3 3 3 2 4 5 1 7 4 4 8 6 5 11 13 11 11 13 15 16 15 14 12 10 6 4 4 4 8 8 2 3 4 4 4 2 3 3 4 2 6 14 19 19 19 18 14 14 15 14 14 15 18 19 18 18 16 15 15 17 18 19 19 20 20 20 20 19 19 20 21 23 24 25 26 25 23 22 20 20 21 22 22 21 21 20 20 20 18 18
2 2 3 4 8 5 6 7 7 6 1 3 3 2 6 6 9 9 6 6 10 11 8 8 11 12 12 13 12 9 8 7 7 7 7 8 5 4 6 4 4 5 5 8 6 3 3 1 3 7 10 11 11 10 10 10 11 12 15 18 18 16 15 14 13 14 16 18 20 21 21 21 21 20 19 19 20 21 22 22 24 25 25 24 23 23 22 22 23 23 23 23 23 22 22 21 21
0 2 3 3 3 4 9 7 6 6 2 3 3 2 4 6 8 3 10 9 13 12 9 9 10 9 9 10 10 9 10 10 10 10 10 10 6 4 6 5 4 5 6 10 11 8 6 4 3 1 2 4 6 7 7 7 8 11 12 13 13 13 12 13 14 13 14 16 18 20 22 24 22 20 21 21 21 21 21 22 22 23 23 23 24 24 24 24 24 24 24 25 25 25 24 23 24
3 2 2 4 2 4 10 6 2 3 2 2 5 1 4 5 7 4 11 12 17 15 11 11 12 12 11 12 15 17 19 17 14 12 9 9 7 6 5 5 5 5 7 12 13 9 7 6 5 4 3 2 3 3 5 6 8 11 11 10 10 12 12 14 15 14 15 16 16 17 20 23 23 21 23 25 25 23 22 22 22 22 22 23 24 24 25 25 26 26 26 26 26 26 26 26 26
4 3 1 3 1 3 6 4 2 1 1 3 5 2 2 3 7 3 8 12 18 18 14 13 13 14 14 17 25 29 30 27 23 19 15 13 11 8 7 5 7 9 10 11 10 7 8 7 6 6 5 3 2 1 1 3 5 8 9 9 9 12 14 16 16 16 17 18 17 17 18 20 21 21 22 25 27 25 23 22 22 22 23 24 24 25 26 26 26 26 26 26 26 26 27 27 28
4 3 1 3 2 1 4 4 4 4 2 2 3 1 3 2 7 4 5 10 17 19 16 17 17 17 19 22 28 32 32 30 28 24 21 18 16 14 13 12 12 12 10 8 7 7 7 5 5 4 3 3 2 2 2 3 3 5 7 8 9 11 14 17 19 19 20 20 19 19 19 19 21 21 21 22 24 24 23 22 22 22 24 24 24 25 26 26 26 27 27 26 25 25 25 26 26
2 1 1 2 2 2 3 4 3 5 4 1 2 2 3 1 7 5 5 9 13 15 15 17 18 20 22 25 28 29 28 27 25 23 21 20 19 18 16 14 11 8 7 7 7 7 7 6 5 4 3 3 3 1 1 3 4 5 8 9 10 11 13 15 18 19 20 21 20 20 22 22 22 23 23 22 22 22 21 21 21 21 23 23 24 25 25 26 26 27 27 26 25 23 23 22 22
5 4 3 2 2 4 5 5 5 2 3 1 2 4 2 1 6 7 9 11 12 14 15 16 18 19 21 24 25 25 25 24 21 19 17 15 14 12 10 7 5 5 7 7 8 9 10 10 9 8 7 6 6 5 5 5 5 6 8 9 11 12 13 14 16 17 17 19 20 21 23 24 26 26 26 25 24 22 21 20 20 20 21 22 23 24 24 25 25 26 27 25 24 22 20 19 18
4 3 2 2 3 5 6 6 6 1 2 3 2 3 1 2 6 6 8 10 11 14 15 15 17 20 23 24 23 22 23 22 19 17 15 12 10 8 6 4 4 5 7 8 9 10 11 11 11 12 11 10 10 10 9 9 9 8 8 9 11 13 14 14 15 14 14 16 19 21 22 24 27 28 27 26 25 23 22 21 21 21 21 22 23 24 23 22 23 24 25 25 24 22 21 18 17
2 3 1 3 3 5 6 4 5 2 2 2 2 2 4 4 6 5 7 7 10 16 17 17 20 21 21 23 22 22 23 22 20 17 15 12 9 7 4 3 3 5 7 9 11 12 12 13 14 15 14 14 14 13 12 12 12 11 11 10 11 13 14 14 14 13 13 15 18 20 22 23 25 27 27 26 26 25 24 23 23 23 22 23 24 24 24 23 22 23 24 25 24 24 23 20 18
3 3 2 2 3 4 6 4 5 3 1 2 2 2 3 6 5 3 5 5 7 14 15 17 22 22 21 22 22 23 23 23 20 18 15 12 9 6 2 1 2 5 7 9 10 12 13 14 15 16 16 16 16 14 13 12 12 13 13 13 14 14 14 14 14 15 15 15 16 18 20 20 22 25 26 26 26 26 26 26 26 24 24 24 24 25 25 25 24 24 25 26 26 25 25 22 21
2 4 3 2 3 1 2 4 5 3 1 0 1 1 2 5 4 1 4 6 5 6 6 9 14 18 21 22 21 22 23 22 20 17 15 12 8 6 3 2 3 4 4 6 8 10 13 15 15 16 16 16 16 15 14 12 11 12 13 14 16 16 16 15 15 15 15 16 17 17 18 18 20 22 25 27 28 28 28 28 27 26 25 25 27 27 26 26 26 26 26 27 27 28 28 26 24
2 3 5 4 3 4 4 2 4 3 3 2 4 3 4 4 2 1 4 3 3 3 5 6 8 12 16 18 19 20 20 19 18 15 13 11 9 7 5 4 3 2 3 5 7 9 11 13 14 15 15 16 16 16 16 15 14 14 14 15 16 17 18 17 17 16 16 17 18 18 18 18 19 21 24 27 30 31 30 29 28 28 27 27 28 30 29 28 27 27 27 28 29 30 31 29 26
3 4 7 6 5 5 3 2 4 4 4 3 4 3 4 4 0 4 4 1 2 1 3 4 6 11 15 18 18 18 17 16 15 13 12 11 10 9 7 4 2 2 4 6 7 8 9 11 12 13 14 15 15 15 16 17 16 16 17 17 18 18 19 19 19 19 19 19 19 19 18 18 19 21 22 24 27 30 32 31 30 30 31 31 31 31 31 31 30 29 28 29 30 31 32 33 31
2 5 7 6 5 5 3 2 3 2 2 3 2 3 3 4 1 4 2 3 3 0 1 3 7 13 16 18 18 17 17 16 15 13 12 12 10 8 6 4 1 4 7 8 8 8 9 11 12 13 15 16 16 16 16 17 16 17 18 18 19 19 20 20 20 21 21 21 22 22 21 20 19 19 21 22 24 27 29 31 31 31 33 34 33 33 32 32 33 32 31 31 31 32 33 34 34
3 5 6 7 5 4 4 5 4 2 3 3 4 3 2 3 4 5 2 5 3 2 3 4 9 14 16 17 18 18 18 17 16 15 13 12 10 7 5 2 4 7 9 9 10 10 11 12 13 14 16 17 18 19 19 19 19 18 17 18 20 21 22 23 22 22 23 23 24 24 24 23 21 20 21 22 23 24 26 29 30 32 34 36 36 35 34 33 33 34 34 33 33 34 34 34 35
5 4 7 6 4 4 4 5 3 0 1 4 5 1 2 4 4 3 1 5 5 7 8 7 10 15 16 18 19 19 19 18 17 15 13 10 8 6 3 4 6 8 9 10 11 11 12 13 14 15 17 18 19 20 20 21 21 21 20 20 20 21 23 25 26 26 24 24 26 26 26 26 25 23 22 23 24 25 26 27 28 29 31 35 37 37 36 34 34 36 36 35 34 35 35 35 36
3 5 7 5 5 4 4 4 3 2 2 4 5 1 2 4 4 1 1 3 8 8 6 6 10 15 18 20 21 21 20 18 16 14 12 9 6 3 2 4 5 7 9 11 12 13 13 13 15 16 18 20 21 21 22 22 23 23 23 23 23 22 23 25 28 30 29 27 27 27 28 28 27 26 25 25 25 25 26 26 27 28 29 32 35 37 38 36 36 37 37 36 35 35 35 36 37
4 6 6 5 5 5 3 3 3 3 2 5 6 2 4 2 4 4 4 4 6 8 5 5 10 17 21 22 22 22 21 18 16 13 11 8 5 1 2 3 4 7 8 12 14 16 16 15 16 18 20 22 23 24 25 25 26 26 26 26 25 25 25 25 27 29 31 31 31 30 29 30 30 29 28 27 26 26 26 26 27 28 29 30 32 34 37 38 37 38 38 38 37 36 35 35 36
5 4 4 2 2 4 3 4 3 2 3 5 5 2 5 2 5 5 7 6 4 7 9 9 12 19 24 23 22 22 20 18 15 13 10 7 4 2 1 3 5 7 10 13 15 17 18 18 19 20 22 23 25 27 29 30 30 30 28 28 28 28 26 26 27 29 30 32 33 33 31 31 32 31 30 29 28 27 26 26 27 27 28 30 30 32 34 37 38 38 37 38 38 37 34 34 36
5 4 4 3 1 3 2 3 1 2 4 4 3 1 3 4 6 5 8 8 5 8 12 14 18 23 26 25 23 22 19 17 15 12 9 6 5 3 2 5 7 8 11 14 15 18 20 20 21 22 24 25 27 29 31 33 34 33 31 30 30 30 29 27 27 28 29 31 33 34 33 33 33 33 32 30 29 28 26 25 25 25 26 29 30 32 33 35 37 38 38 38 39 38 35 34 35
4 4 4 3 2 2 1 3 1 2 3 2 3 2 1 4 4 4 7 8 9 11 15 20 24 27 29 28 24 22 19 17 14 11 9 7 5 3 5 6 7 9 12 14 16 18 20 21 22 23 24 26 28 30 33 35 36 36 33 31 31 31 31 29 28 28 29 29 31 33 34 33 33 34 34 32 30 29 28 27 26 25 25 26 28 31 33 34 35 37 39 39 39 39 38 36 36
3 4 5 4 4 3 3 3 2 3 2 2 3 1 2 2 3 4 6 8 10 12 16 21 24 25 27 26 23 22 20 17 14 12 11 8 6 6 7 7 8 9 11 13 16 18 19 20 22 23 25 26 28 31 33 36 37 37 35 32 31 32 32 31 29 28 28 29 30 32 34 34 33 34 35 34 32 30 30 29 28 27 26 25 26 28 31 32 33 34 37 38 38 38 39 39 38
2 2 4 2 4 4 2 2 4 2 1 2 2 2 3 3 3 4 4 4 3 4 12 19 22 23 22 23 24 23 21 18 15 14 13 10 8 8 8 8 8 9 11 13 15 16 18 19 21 23 24 26 28 30 33 36 37 37 35 33 32 32 32 32 31 29 28 29 29 30 33 34 34 35 36 35 33 31 30 30 30 29 27 26 26 26 28 30 31 32 34 37 38 39 40 40 39
1 2 3 4 4 6 4 1 1 3 1 2 1 2 4 3 2 4 3 3 3 2 9 16 21 22 21 24 26 25 23 19 17 16 14 12 11 10 9 9 9 10 11 12 13 14 16 18 20 22 24 25 28 30 33 35 36 37 35 33 32 32 33 33 32 30 29 29 30 30 32 34 35 35 36 36 35 34 31 31 32 31 29 28 27 27 27 28 30 31 33 36 38 38 38 38 39
4 2 4 3 2 4 4 1 3 3 1 3 1 3 4 2 2 4 3 0 2 2 6 10 16 19 21 26 29 27 24 21 18 18 16 13 12 10 10 9 10 10 11 12 13 14 15 17 19 22 24 26 28 31 33 35 36 35 34 32 32 32 32 32 31 30 29 30 30 31 31 33 34 35 36 36 36 35 34 32 32 32 32 30 29 28 27 28 29 30 33 35 37 38 37 38 39
3 4 4 3 2 1 1 2 1 0 2 3 3 3 3 3 3 3 3 6 7 5 5 7 11 18 23 28 30 28 25 23 21 19 17 15 13 12 11 10 11 11 12 12 13 14 16 18 20 22 25 27 29 32 34 35 35 33 32 31 31 32 32 31 31 30 30 30 30 31 31 32 32 33 35 36 36 36 35 34 32 32 32 32 32 31 29 28 29 30 31 33 36 37 37 38 38
3 3 2 1 2 3 2 2 3 2 2 2 3 3 3 5 5 5 8 9 8 6 6 8 13 22 27 29 30 29 27 25 22 21 19 16 14 13 12 11 12 12 12 12 13 15 17 19 21 23 25 28 30 33 35 36 35 32 30 29 30 31 31 31 31 31 30 29 29 31 32 32 31 31 32 34 36 37 36 35 34 33 32 31 32 32 31 29 30 31 31 32 34 36 36 36 37
2 1 1 1 1 2 1 1 2 3 3 2 1 2 4 5 4 6 9 9 8 10 10 10 16 25 29 31 32 31 27 24 23 22 20 17 15 14 13 13 13 13 13 13 14 16 17 19 21 23 26 29 32 34 35 36 35 32 29 28 29 30 31 31 31 31 30 28 28 29 31 31 30 30 30 32 34 36 37 36 35 34 32 31 30 31 31 30 30 31 30 30 32 34 35 36 37
3 2 3 3 3 2 1 1 1 2 3 3 3 2 6 5 3 5 7 6 7 11 11 11 18 26 30 32 33 31 27 25 24 22 20 17 16 15 14 15 15 14 14 14 14 15 17 19 22 24 27 30 32 35 35 35 34 31 29 28 29 29 30 31 30 30 30 28 27 28 29 29 28 28 28 28 30 34 36 36 35 34 33 32 31 31 31 30 30 31 31 30 30 32 34 37 38
Wind_Direction
231 253 270 282 304 320 350 11 42 343 72 99 301 228 262 253 224 2 317 330 325 318 8 134 159 168 205 250 252 263 254 192 188 165 207 291 216 162 167 154 157 163 161 167 174 176 177 180 180 177 175 173 175 181 181 178 175 173 170 166 164 163 162 163 163 162 163 164 166 163 158 153 151 151 150 149 144 136 130 128 128 129 129 132 136 136 133 131 128 124 121 120 122 122 116 110 108
253 260 269 270 289 310 336 17 63 334 51 45 289 196 256 313 349 239 256 281 281 304 328 126 213 221 239 260 265 280 264 226 229 235 276 289 163 163 168 160 162 162 162 168 175 176 178 183 182 177 173 171 173 177 179 175 173 173 168 166 164 165 164 163 163 163 165 165 165 160 156 155 154 153 150 147 142 137 135 137 138 137 135 139 141 138 134 131 128 124 123 125 124 122 114 107 104
264 263 267 254 256 273 343 33 86 74 83 227 275 246 277 332 282 245 234 250 289 304 300 295 275 243 238 230 232 236 249 249 248 252 279 221 177 169 167 163 166 164 164 169 173 175 178 182 183 180 172 168 174 177 177 175 173 172 168 166 164 165 164 163 164 165 166 165 163 159 157 158 156 152 148 143 138 134 135 138 140 140 140 143 145 141 136 131 132 130 127 127 126 125 121 114 107
267 258 250 205 156 109 88 55 137 121 138 215 264 270 270 263 254 261 269 273 295 301 285 284 280 236 229 230 220 220 256 255 245 245 256 215 195 175 165 167 171 169 171 171 171 174 175 179 181 181 175 170 176 179 178 176 174 172 169 167 166 164 163 162 165 166 166 165 162 159 159 158 156 152 148 142 136 133 132 133 135 138 141 145 148 144 139 135 135 134 131 129 129 132 133 132 127
258 236 168 163 152 118 101 81 120 119 195 188 205 268 249 241 265 282 292 298 294 292 279 271 272 231 226 240 220 209 245 230 236 239 232 216 198 180 173 174 175 176 179 178 174 177 177 178 181 178 176 175 176 179 180 177 174 173 171 169 167 164 163 162 164 167 167 165 163 162 161 159 158 156 151 145 141 138 134 131 129 131 138 145 148 146 145 141 138 139 136 134 135 140 141 143 141
176 149 125 132 123 120 120 112 151 162 219 176 170 263 269 257 278 292 302 310 307 307 293 266 266 266 237 238 223 225 234 219 232 233 223 214 197 189 189 185 180 182 185 186 183 184 181 180 184 178 177 180 177 177 180 179 175 174 173 171 169 166 163 162 164 167 168 167 165 164 162 162 162 159 153 150 147 143 138 133 128 126 131 143 149 147 151 149 144 146 144 142 145 148 146 149 150
146 145 123 120 81 73 120 147 183 215 238 184 174 253 286 287 291 302 312 321 329 329 316 287 282 294 274 254 232 231 231 223 227 230 222 210 199 197 204 199 186 186 190 194 192 188 186 185 188 184 181 182 178 177 179 179 177 174 173 172 170 167 164 162 163 167 169 168 166 163 163 165 164 160 155 152 149 145 143 139 135 131 129 138 148 152 158 157 152 151 150 150 151 151 151 155 157
139 147 116 118 51 36 104 139 198 216 234 220 212 247 275 290 298 311 316 316 317 308 303 297 291 279 262 255 240 235 230 225 225 231 225 212 205 205 208 203 194 193 193 199 200 193 190 190 190 187 184 182 180 178 179 180 178 174 174 174 172 169 166 162 162 164 168 168 165 164 166 168 163 159 156 153 150 148 148 146 144 142 135 134 144 155 162 164 158 154 153 153 152 153 156 157 148
135 144 102 106 105 63 54 84 248 241 249 264 256 269 283 293 305 319 307 304 303 300 297 301 294 253 257 245 233 236 227 222 225 228 226 221 211 205 203 199 198 199 196 202 204 197 192 192 192 189 185 184 182 180 181 180 177 175 174 175 173 171 168 163 160 161 165 165 165 165 166 166 161 157 155 155 152 152 151 151 150 148 146 140 141 153 166 170 164 158 156 155 155 157 159 157 138
128 123 119 97 102 88 332 282 269 253 247 266 272 282 290 298 312 314 300 301 305 307 305 313 296 239 251 237 231 231 223 223 225 220 221 224 214 204 202 197 198 198 193 200 204 198 194 193 192 189 188 186 183 182 182 180 177 175 174 174 173 171 169 164 159 157 160 163 165 165 164 165 160 157 158 159 157 156 155 154 154 152 152 151 149 150 165 175 173 167 161 161 161 163 166 164 143
116 77 115 84 78 162 244 233 270 260 267 295 294 285 293 305 313 308 302 306 308 309 307 318 299 241 243 233 234 222 220 224 221 215 218 222 217 209 204 202 205 204 195 199 205 199 194 194 193 190 189 187 185 183 181 179 178 174 172 173 172 172 170 165 160 156 156 159 163 163 163 163 161 161 163 164 162 161 159 157 155 155 158 159 158 153 158 174 181 178 171 170 170 172 176 180 161
142 39 91 91 152 194 198 201 264 269 301 317 288 296 320 319 310 300 301 308 306 305 307 313 279 261 233 234 234 219 218 217 214 212 211 211 211 203 197 207 213 211 200 199 208 203 197 196 194 191 189 188 186 184 182 180 178 176 173 172 173 173 171 168 163 157 154 154 159 163 162 163 163 166 168 168 166 164 163 162 161 163 165 166 168 165 162 170 183 187 182 181 179 181 185 196 205
169 145 98 127 190 170 165 177 265 287 320 276 251 309 339 319 302 294 296 301 300 300 312 314 289 272 222 237 229 217 213 206 211 207 201 200 198 188 182 196 203 201 196 192 202 205 200 198 197 193 191 188 186 185 184 183 180 178 175 174 174 174 173 171 167 161 157 154 157 161 162 164 165 169 173 173 170 167 167 168 170 171 172 173 177 177 174 172 179 189 189 188 190 191 195 206 224
170 157 121 156 186 132 165 192 266 257 277 259 251 330 326 306 300 303 306 302 308 317 312 316 303 269 221 244 225 214 206 204 214 207 199 195 191 185 178 182 186 189 195 189 194 218 207 202 201 196 194 189 187 186 185 185 184 182 179 178 177 176 176 174 173 168 164 161 159 161 163 165 166 171 175 177 176 175 174 174 178 179 179 182 184 182 180 177 178 187 191 193 197 202 206 212 226
162 153 109 116 55 357 211 224 209 182 241 255 246 325 312 303 323 312 314 290 318 342 326 310 308 261 245 243 223 208 199 207 211 203 199 193 191 188 176 173 179 188 194 184 197 254 223 209 206 199 198 193 188 187 186 186 185 186 184 183 181 181 181 180 180 176 173 170 167 165 165 167 169 173 175 177 181 182 180 180 183 185 188 191 191 187 182 182 183 187 192 196 201 208 214 219 227
156 140 76 93 191 274 222 219 181 174 249 245 210 295 316 310 337 322 324 315 320 351 358 346 317 285 299 256 236 218 201 207 207 201 197 189 188 182 173 174 187 195 195 183 199 247 221 209 209 201 200 197 192 189 188 188 186 187 187 187 187 187 187 187 187 185 183 180 177 173 170 173 174 176 178 180 182 184 186 186 188 190 193 198 198 195 190 189 189 189 192 197 204 212 220 226 231
156 121 72 98 189 215 207 203 184 182 258 264 223 287 322 302 330 328 328 328 324 351 18 11 336 309 305 253 230 217 204 205 205 203 198 180 174 173 175 188 198 198 198 192 197 218 208 206 208 204 202 200 197 193 192 191 188 188 187 187 188 189 191 192 193 193 193 190 188 184 180 180 180 182 183 186 187 187 189 191 194 195 200 205 201 197 195 194 194 194 194 197 203 212 221 228 234
152 105 112 178 193 202 188 189 197 179 251 271 274 303 250 270 316 329 331 334 338 349 16 23 354 343 342 192 185 196 199 201 202 204 202 182 172 179 188 192 189 190 197 200 197 194 194 199 205 208 205 201 200 198 196 195 194 193 191 191 189 191 193 194 197 197 199 198 197 195 192 190 188 188 189 192 194 193 194 195 197 200 206 212 208 200 196 196 198 199 200 202 205 210 217 225 233
150 96 137 212 205 204 205 195 200 209 257 271 290 296 254 239 293 326 324 318 342 346 357 18 33 56 114 174 172 185 192 196 202 206 206 191 181 190 194 184 174 178 187 194 196 191 187 194 206 211 207 203 202 201 200 199 199 199 198 198 196 197 198 200 201 202 204 204 204 203 202 201 199 197 197 198 200 201 201 200 200 201 204 208 210 208 205 203 202 203 205 207 211 214 217 222 230
179 114 150 243 216 227 260 246 242 247 257 272 288 290 242 259 285 306 297 302 335 333 333 1 37 102 174 181 178 189 196 200 207 212 215 207 197 200 201 193 185 184 188 192 192 190 189 193 202 209 209 207 203 202 202 202 203 202 201 202 201 202 203 205 206 208 210 211 212 211 210 210 210 208 206 206 205 208 209 207 206 205 206 205 205 208 209 211 209 208 209 210 213 219 222 224 229
182 150 193 233 187 234 263 254 271 265 251 259 271 289 250 279 286 281 291 321 325 306 318 348 3 173 206 208 199 197 203 207 206 209 219 218 215 219 220 218 212 207 209 205 197 194 193 196 204 207 210 211 206 203 202 202 205 204 204 204 204 205 206 208 209 211 213 216 218 218 219 217 216 216 216 215 213 212 214 215 214 213 215 214 212 209 209 214 215 213 212 213 214 219 225 228 232
173 211 228 236 172 245 270 259 278 278 256 254 258 278 261 268 279 231 247 261 265 281 305 325 256 181 247 231 213 202 202 206 204 210 224 234 247 248 231 220 219 225 228 214 201 203 204 203 210 212 212 212 209 207 203 203 205 206 207 206 207 208 209 211 212 215 217 219 221 221 223 223 223 222 221 223 221 219 217 220 221 220 223 223 223 219 215 217 218 219 216 217 216 217 223 229 234
199 265 255 259 232 235 270 264 255 269 272 249 236 257 244 225 294 232 231 261 266 269 276 279 212 186 243 231 217 209 203 203 202 212 226 231 232 228 221 219 221 232 237 219 205 208 209 208 217 220 218 215 212 211 207 206 207 209 211 211 213 214 213 214 216 219 221 224 225 224 224 225 227 228 226 226 227 226 223 222 224 224 226 228 229 227 224 223 222 222 221 220 218 219 222 227 233
186 275 280 275 248 235 267 270 258 260 254 248 247 246 239 242 263 229 250 273 276 262 249 237 198 186 218 224 220 211 200 192 183 192 211 222 213 206 209 215 221 221 218 214 217 211 202 207 218 224 224 219 213 212 211 212 214 215 216 217 219 220 219 218 219 221 223 227 227 227 228 228 229 231 231 230 230 230 228 226 225 226 227 229 232 232 230 229 229 228 227 226 223 222 223 226 232
163 242 268 286 271 258 276 280 269 262 255 254 250 244 249 232 213 229 246 276 285 256 248 224 187 175 211 213 211 202 191 190 190 189 204 232 238 230 221 221 229 232 211 201 217 211 200 210 216 222 226 222 218 216 216 219 221 221 222 223 224 225 223 221 220 220 221 224 228 232 234 234 233 232 232 232 232 232 231 231 229 228 229 230 232 234 234 233 234 233 231 231 229 228 227 227 231
200 233 269 276 275 276 277 272 264 260 258 244 229 250 248 144 198 268 265 308 303 247 248 222 182 170 176 186 194 196 197 202 205 202 217 256 309 351 351 319 289 321 328 238 231 215 197 206 209 210 214 217 222 219 218 221 223 227 229 230 228 227 225 222 220 219 220 221 226 233 238 239 238 237 234 233 233 233 234 234 234 233 231 232 234 235 236 236 237 237 236 235 235 233 231 230 231
245 251 267 260 274 281 268 262 263 258 253 228 209 245 226 126 172 267 284 292 261 230 226 201 185 177 167 179 194 195 202 209 217 230 252 280 320 342 1 358 324 352 2 303 268 230 206 203 206 210 209 209 215 213 213 216 218 225 227 227 226 227 226 223 220 220 223 225 228 233 237 240 242 243 240 236 234 235 236 237 238 239 236 235 236 237 238 238 238 240 240 238 238 238 236 234 233
281 271 281 283 308 307 268 256 267 278 261 227 203 227 352 55 121 226 253 249 216 214 203 183 192 193 171 182 203 199 204 210 228 251 259 265 284 305 15 43 65 88 69 277 314 278 229 220 220 222 217 213 214 210 211 212 215 222 224 228 231 232 230 226 225 225 229 232 234 237 239 241 242 243 244 241 238 237 238 239 240 241 242 240 240 241 241 242 242 241 242 241 240 241 241 240 239
296 33 351 312 350 357 318 351 345 357 310 220 174 8 344 351 301 271 257 222 203 200 192 180 187 189 177 184 198 200 206 208 217 219 218 240 252 232 87 64 95 125 158 135 44 4 324 242 235 231 224 222 222 217 216 215 217 225 231 236 235 234 232 228 232 237 239 241 242 243 242 241 240 240 243 245 243 241 241 241 242 243 244 244 244 244 244 245 246 244 244 243 243 243 244 245 244
247 39 52 342 5 344 331 3 348 0 13 240 133 35 302 292 298 273 219 191 179 167 162 164 172 182 180 178 176 173 182 187 189 175 168 199 208 114 97 77 77 94 100 87 76 81 86 86 248 242 239 244 245 242 239 231 227 229 234 236 237 242 240 234 238 243 245 248 250 249 248 245 242 241 243 245 245 245 245 245 245 246 247 248 247 247 246 246 248 248 247 246 246 245 246 247 247
230 24 51 23 26 294 315 338 339 18 29 263 108 126 265 284 302 213 172 171 151 132 120 136 148 162 172 167 152 139 141 150 163 163 169 181 171 111 103 117 109 90 85 79 84 97 97 98 88 45 298 297 284 279 279 271 260 250 250 251 252 254 247 239 240 242 245 248 250 251 252 250 248 248 250 248 246 246 247 248 249 249 250 251 250 249 248 248 248 249 249 249 248 247 248 248 250
33 48 347 342 59 280 308 322 345 22 298 350 83 162 268 280 288 170 164 169 146 129 116 125 133 140 145 138 131 124 119 123 133 137 143 150 152 156 144 136 112 90 92 86 88 99 101 101 95 90 80 38 9 337 314 296 280 267 269 277 273 264 256 249 246 245 246 247 246 248 253 254 253 257 261 256 249 247 248 249 252 253 253 251 252 251 250 249 249 249 249 249 250 249 249 249 250
7 71 196 293 349 305 314 331 351 37 236 12 68 177 246 292 286 207 168 172 148 133 125 128 130 132 127 116 116 116 115 114 115 116 118 121 130 147 154 134 100 100 108 99 93 94 93 95 96 103 114 115 110 74 325 305 296 279 272 274 274 269 266 262 258 255 253 250 248 249 256 260 260 261 267 266 257 251 251 253 254 254 255 254 253 253 251 250 249 249 248 248 249 251 251 251 251
324 21 68 265 255 283 317 319 337 41 81 312 33 149 188 254 280 257 180 175 150 138 137 137 137 135 128 120 118 119 120 118 118 119 119 117 117 117 122 124 117 111 100 83 75 71 67 67 68 72 80 96 118 149 204 234 261 270 267 265 265 264 263 262 263 262 258 257 255 254 256 259 261 261 265 268 262 255 253 255 255 254 254 254 254 254 254 252 250 249 248 246 247 249 252 253 254
217 255 41 298 293 273 282 280 296 22 29 258 37 308 232 258 272 241 181 179 153 139 141 140 139 136 131 128 126 125 126 124 123 125 123 122 119 115 116 115 109 93 63 47 41 35 29 32 31 20 20 20 14 8 289 266 258 257 259 262 264 264 262 260 262 263 262 262 260 256 255 254 257 259 259 261 260 258 256 256 257 255 254 253 255 256 254 252 249 248 247 244 243 246 249 253 256
174 184 165 193 269 277 266 259 262 10 20 288 172 232 257 340 260 220 175 176 157 142 144 143 141 138 134 131 130 130 130 126 125 128 130 130 127 122 118 106 79 40 26 23 22 17 13 14 6 359 359 353 343 331 315 302 291 284 277 272 268 266 266 264 264 264 265 265 261 257 255 254 254 256 255 255 258 261 261 262 262 259 256 254 255 255 254 251 249 249 248 245 242 244 247 250 255
142 123 131 206 219 266 271 267 280 77 116 278 220 199 27 11 264 235 176 170 158 150 150 153 152 146 141 137 135 134 130 129 132 137 139 140 138 130 113 83 48 18 8 3 1 3 6 3 354 354 355 347 338 329 320 309 302 300 297 290 277 270 270 270 269 266 264 265 264 259 255 253 254 253 251 251 255 261 263 265 266 265 262 257 255 256 256 254 253 252 250 246 243 245 247 247 253
106 115 197 272 214 248 263 260 298 341 143 279 321 34 25 351 284 238 180 177 173 165 160 165 162 153 148 143 141 138 133 134 139 142 143 144 141 129 111 76 35 5 359 352 349 352 353 350 345 345 342 336 334 332 326 318 310 306 302 298 286 277 274 274 274 272 267 263 262 259 256 254 253 250 247 247 251 257 261 262 262 263 265 262 258 258 258 256 253 251 250 247 245 246 248 247 249
124 128 143 274 235 259 285 287 315 355 120 279 308 39 2 324 306 204 194 235 204 178 171 171 165 158 156 151 147 144 139 139 141 143 143 142 141 137 133 41 346 338 345 344 343 343 339 337 337 334 329 325 324 322 319 315 312 308 305 301 293 285 279 273 270 271 270 264 259 259 260 261 257 251 246 246 250 255 260 262 261 261 263 265 263 260 259 258 254 251 249 249 249 250 250 248 247
136 130 132 248 245 223 278 293 317 357 56 244 153 99 341 333 360 96 240 267 252 214 189 174 167 164 162 157 154 150 147 146 145 145 146 149 158 167 192 235 279 301 322 333 334 333 331 331 329 324 320 315 311 309 307 305 303 300 299 299 296 292 287 280 271 268 268 263 257 256 259 262 262 257 251 248 249 252 257 260 262 261 260 264 267 265 262 260 257 254 251 250 252 252 251 249 247
264 169 171 212 218 195 207 287 329 351 12 47 76 45 334 338 31 249 271 263 257 240 179 170 175 171 163 158 156 155 153 154 152 153 156 164 175 183 194 209 234 272 308 333 338 338 337 334 330 326 322 315 309 304 301 299 297 294 289 287 286 285 285 284 278 269 263 261 260 258 256 258 259 257 253 251 250 251 254 255 257 257 256 257 263 265 265 263 261 259 255 252 252 252 253 254 252
285 221 194 194 178 176 198 4 26 32 356 333 46 44 300 319 121 230 277 223 204 215 164 179 179 171 166 161 161 163 162 161 162 162 165 172 179 183 185 187 213 310 349 3 2 355 352 349 346 344 340 335 328 319 311 305 302 299 295 293 292 288 284 284 284 279 271 267 267 267 263 260 259 257 254 253 253 253 253 253 253 254 254 254 256 259 263 264 263 260 257 256 254 254 255 257 256
263 231 189 171 140 126 138 96 74 80 267 286 47 115 254 311 225 220 248 181 199 195 157 209 183 173 172 168 167 170 169 169 171 170 171 175 176 179 181 174 111 23 26 25 16 9 7 4 3 3 0 358 355 347 338 328 319 310 301 298 297 296 292 288 285 283 280 277 276 275 274 269 265 263 258 254 254 255 255 254 253 253 254 255 254 254 256 261 263 263 261 260 259 257 256 256 256
227 225 153 138 136 147 161 126 114 202 246 318 11 108 191 286 254 245 188 157 204 241 226 226 195 185 181 176 173 171 173 175 178 178 179 177 173 175 174 136 59 43 37 26 19 16 14 10 8 7 4 2 1 359 353 346 341 333 321 307 297 292 290 289 285 281 281 280 278 278 279 277 273 268 264 259 255 254 254 255 255 254 253 254 255 255 254 256 260 262 263 261 261 260 258 257 258
239 187 119 126 146 155 147 115 114 351 18 316 318 64 171 268 273 297 95 159 207 220 217 221 204 196 190 182 177 173 174 177 181 185 182 177 175 171 143 74 52 41 29 16 12 13 14 11 6 1 358 357 358 357 353 349 346 341 336 327 313 301 290 285 284 281 280 280 279 277 278 279 278 273 268 265 259 255 254 254 256 257 256 255 254 255 256 254 254 257 259 261 261 261 260 260 260
224 120 85 62 63 75 89 102 113 57 31 256 273 277 187 273 278 229 108 213 220 214 215 224 213 205 196 187 181 177 175 176 179 182 181 181 183 162 87 55 40 24 15 10 7 7 8 7 2 358 355 353 352 352 350 348 344 339 337 334 328 320 306 293 284 280 278 278 278 278 276 277 279 277 272 268 265 260 256 254 255 257 258 258 256 255 256 254 251 252 255 259 261 262 262 261 260
119 98 66 47 35 34 44 57 93 80 304 255 259 226 160 269 277 198 188 229 208 190 195 217 214 209 201 193 187 181 178 178 178 179 183 190 194 174 51 31 9 2 5 7 6 3 1 360 359 357 354 351 349 348 348 347 344 339 335 333 331 326 319 310 298 288 282 278 276 276 276 275 275 277 276 272 268 265 261 256 254 255 257 259 258 257 257 255 252 251 253 256 258 259 261 261 259
102 91 78 93 341 5 27 359 42 107 258 262 270 238 141 187 266 225 225 250 214 183 192 195 202 208 205 198 193 187 181 182 183 185 192 198 208 223 341 344 339 350 1 2 1 359 356 355 355 353 351 349 348 347 347 345 343 339 334 332 331 327 321 315 308 299 291 283 278 275 274 274 273 274 275 275 271 269 267 263 258 256 255 256 257 258 259 258 257 254 253 254 256 257 257 258 258
90 93 84 106 315 2 5 311 352 200 246 259 275 273 158 220 248 225 229 249 242 209 203 198 197 201 203 201 196 189 185 189 191 193 203 213 221 241 305 321 328 345 354 355 356 355 352 350 350 349 347 347 347 347 346 344 342 339 335 330 329 327 323 316 310 304 298 290 283 278 274 272 272 272 272 273 273 271 270 268 263 259 257 256 256 257 258 260 259 256 252 250 252 253 252 253 256
136 141 121 133 114 62 283 273 303 264 258 267 283 272 249 277 265 211 220 247 257 240 220 209 202 198 198 199 195 190 191 195 199 205 216 226 234 262 299 311 325 339 345 348 350 347 345 345 345 344 344 344 345 345 343 342 340 338 335 331 328 327 324 320 314 310 305 297 288 282 276 271 269 270 270 270 271 271 270 269 266 262 258 256 256 256 257 259 259 256 252 249 251 251 249 250 254
182 167 135 146 155 153 226 228 201 248 268 287 297 268 184 236 246 219 232 260 271 256 224 207 204 202 199 198 195 193 197 200 204 214 222 231 249 270 288 302 316 328 337 341 341 339 338 339 338 339 340 341 342 341 340 339 338 337 334 331 328 326 324 321 317 313 311 306 297 287 280 274 267 265 266 267 267 268 269 268 266 265 261 256 255 256 256 257 257 256 255 254 253 251 249 251 253
238 150 115 156 183 153 159 194 174 178 272 295 284 233 213 218 244 268 282 298 302 229 197 185 191 201 201 200 198 197 201 203 209 220 225 234 250 265 278 291 302 313 326 331 331 330 331 332 333 335 337 338 338 338 338 338 337 335 333 329 326 325 323 322 320 315 312 310 305 295 285 278 271 264 262 263 264 265 266 266 264 264 263 258 256 256 255 254 253 253 254 255 255 253 251 251 252
194 127 177 216 178 121 115 213 45 83 125 278 251 249 295 317 289 309 356 24 33 136 172 173 182 193 199 202 201 201 204 207 217 228 232 239 251 263 274 281 289 303 315 319 320 322 325 328 329 331 333 334 336 336 337 337 336 334 331 327 324 324 323 323 322 317 313 311 309 303 293 283 276 269 262 259 259 260 262 263 263 263 262 260 257 256 255 254 252 251 251 253 254 254 254 252 252
126 181 213 200 116 88 105 167 5 47 210 276 277 238 287 325 288 316 359 274 265 200 175 175 181 190 200 205 204 205 208 212 224 232 234 240 249 259 267 273 283 296 305 310 313 318 323 326 327 330 331 333 335 336 337 336 335 333 329 325 323 323 323 323 322 318 314 313 312 309 303 292 282 274 266 259 256 256 259 260 260 261 261 259 258 257 256 255 255 253 251 252 252 253 254 254 254
117 170 171 121 129 141 71 129 156 283 232 283 306 280 263 214 226 266 242 221 225 212 186 180 188 197 204 208 207 208 211 217 224 229 232 238 246 256 262 269 279 288 296 301 308 316 320 322 325 328 330 332 334 335 336 334 333 330 326 323 322 323 322 322 322 320 314 313 315 314 311 303 292 281 272 263 256 253 254 257 258 259 259 258 257 257 256 255 256 255 254 252 251 251 253 254 255
20 92 97 51 142 161 156 143 158 177 196 256 306 321 275 233 220 205 211 216 206 192 193 199 203 204 206 208 208 209 212 218 225 228 232 238 246 253 257 265 272 277 285 294 303 312 315 318 323 327 329 332 334 334 334 333 331 328 324 322 321 322 322 320 320 321 314 311 315 316 315 312 305 291 279 268 258 251 250 253 255 256 257 256 255 255 255 254 254 255 255 253 252 251 251 252 253
359 72 205 288 82 120 163 139 127 142 159 185 227 290 269 249 214 193 214 219 201 194 199 206 209 208 208 209 209 211 214 221 227 229 232 239 246 248 250 257 264 269 280 290 299 306 311 317 323 327 330 332 332 333 333 331 329 327 322 321 322 322 322 320 319 320 316 310 310 314 314 314 311 302 288 274 263 253 249 251 254 255 256 255 254 253 253 254 254 255 255 253 253 252 250 249 251
168 169 214 192 148 131 150 266 294 121 150 171 166 236 269 259 209 204 224 221 210 211 209 210 212 210 210 210 210 213 218 225 230 229 233 241 244 245 247 254 261 268 277 286 293 301 310 318 323 327 329 331 332 332 331 329 328 325 321 321 322 323 323 320 318 319 318 312 307 309 311 310 310 307 296 282 268 256 250 250 252 254 255 253 252 251 251 253 254 256 257 256 255 253 250 249 250